EN

Hourly Weather Alloza

Today, 20 January, Wednesday

Time Temperature Precipitation Wind Pressure Humidity
00:00 +2°C° 0 mm 3 mps 703 mmHg 69%
01:00 +2°C° 0 mm 3 mps 702 mmHg 70%
02:00 +3°C° 0 mm 2 mps 701 mmHg 72%
03:00 +3°C° 0 mm 2 mps 701 mmHg 73%
04:00 +3°C° 0 mm 2 mps 701 mmHg 71%
05:00 +2°C° 0 mm 2 mps 700 mmHg 70%
06:00 +2°C° 0 mm 2 mps 700 mmHg 72%
07:00 +3°C° 0 mm 2 mps 700 mmHg 70%
08:00 +4°C° 0 mm 2 mps 700 mmHg 68%
09:00 +6°C° 0 mm 2 mps 700 mmHg 65%
10:00 +5°C° 0 mm 3 mps 700 mmHg 67%
11:00 +6°C° 0 mm 5 mps 699 mmHg 69%
12:00 +5°C° 0 mm 7 mps 699 mmHg 71%
13:00 +6°C° 0 mm 7 mps 698 mmHg 73%
14:00 +6°C° 0 mm 7 mps 697 mmHg 75%
15:00 +6°C° 0 mm 7 mps 697 mmHg 77%
16:00 +5°C° 0 mm 7 mps 697 mmHg 78%
17:00 +5°C° 0 mm 7 mps 697 mmHg 80%
18:00 +4°C° 0 mm 7 mps 697 mmHg 81%
19:00 +4°C° 0 mm 6 mps 697 mmHg 81%
20:00 +4°C° 0 mm 6 mps 697 mmHg 80%
21:00 +5°C° 0 mm 6 mps 697 mmHg 80%
22:00 +5°C° 0 mm 6 mps 697 mmHg 80%
23:00 +5°C° 0 mm 6 mps 697 mmHg 81%

Tomorrow, 21 January, Thursday

Time Temperature Precipitation Wind Pressure Humidity
00:00 +5°C° 0 mm 7 mps 697 mmHg 82%
01:00 +5°C° 0 mm 7 mps 697 mmHg 81%
02:00 +5°C° 0 mm 6 mps 697 mmHg 81%
03:00 +5°C° 0 mm 6 mps 697 mmHg 81%
04:00 +5°C° 0 mm 6 mps 697 mmHg 81%
05:00 +5°C° 0 mm 7 mps 698 mmHg 81%
06:00 +5°C° 0 mm 7 mps 698 mmHg 82%
07:00 +5°C° 0 mm 7 mps 698 mmHg 80%
08:00 +5°C° 0 mm 7 mps 698 mmHg 78%
09:00 +6°C° 0 mm 7 mps 699 mmHg 76%
10:00 +7°C° 0 mm 8 mps 699 mmHg 72%
11:00 +8°C° 0 mm 9 mps 699 mmHg 68%
12:00 +9°C° 0 mm 10 mps 699 mmHg 64%
13:00 +9°C° 0 mm 11 mps 699 mmHg 64%
14:00 +9°C° 0 mm 11 mps 698 mmHg 65%
15:00 +8°C° 0 mm 12 mps 698 mmHg 66%
16:00 +8°C° 0 mm 11 mps 698 mmHg 69%
17:00 +7°C° 0 mm 9 mps 698 mmHg 71%
18:00 +7°C° 0 mm 8 mps 697 mmHg 74%
19:00 +7°C° 0 mm 8 mps 697 mmHg 75%
20:00 +8°C° 0 mm 7 mps 697 mmHg 76%
21:00 +8°C° 0 mm 6 mps 697 mmHg 77%
22:00 +8°C° 0 mm 6 mps 697 mmHg 78%
23:00 +8°C° 0 mm 6 mps 697 mmHg 79%

Day after tomorrow, 22 January, Friday

Time Temperature Precipitation Wind Pressure Humidity
00:00 +7°C° 0 mm 5 mps 697 mmHg 80%
01:00 +7°C° 0 mm 6 mps 696 mmHg 79%
02:00 +7°C° 0 mm 6 mps 696 mmHg 78%
03:00 +8°C° 0 mm 6 mps 695 mmHg 78%
04:00 +7°C° 0 mm 8 mps 694 mmHg 77%
05:00 +7°C° 0 mm 10 mps 693 mmHg 76%
06:00 +7°C° 0 mm 11 mps 692 mmHg 75%
07:00 +7°C° 0.5 mm 13 mps 692 mmHg 73%
08:00 +6°C° 0.5 mm 14 mps 692 mmHg 71%
09:00 +6°C° 0.5 mm 16 mps 691 mmHg 69%
10:00 +6°C° 0.1 mm 17 mps 692 mmHg 65%
11:00 +6°C° 0.1 mm 18 mps 692 mmHg 61%
12:00 +6°C° 0.1 mm 19 mps 692 mmHg 57%
13:00 +6°C° 0 mm 19 mps 693 mmHg 56%
14:00 +5°C° 0 mm 18 mps 693 mmHg 56%
15:00 +5°C° 0 mm 17 mps 694 mmHg 55%
16:00 +4°C° 0 mm 15 mps 694 mmHg 56%
17:00 +3°C° 0 mm 13 mps 695 mmHg 57%
18:00 +2°C° 0 mm 10 mps 695 mmHg 58%
19:00 +2°C° 0 mm 11 mps 695 mmHg 62%
20:00 +1°C° 0 mm 11 mps 696 mmHg 66%
21:00 0°C° 0 mm 12 mps 696 mmHg 70%
22:00 0°C° 0 mm 12 mps 697 mmHg 72%
23:00 0°C° 0 mm 12 mps 697 mmHg 73%

23 January, Saturday

Time Temperature Precipitation Wind Pressure Humidity
00:00 +1°C° 0 mm 11 mps 697 mmHg 75%
01:00 0°C° 0 mm 12 mps 697 mmHg 75%
02:00 0°C° 0 mm 12 mps 697 mmHg 76%
03:00 0°C° 0 mm 12 mps 697 mmHg 77%
04:00 0°C° 0 mm 12 mps 697 mmHg 76%
05:00 0°C° 0 mm 13 mps 697 mmHg 75%
06:00 0°C° 0 mm 13 mps 697 mmHg 75%
07:00 +1°C° 0 mm 14 mps 697 mmHg 72%
08:00 +1°C° 0 mm 15 mps 697 mmHg 70%
09:00 +2°C° 0 mm 16 mps 697 mmHg 67%
10:00 +2°C° 0 mm 16 mps 697 mmHg 67%
11:00 +4°C° 0 mm 16 mps 697 mmHg 67%
12:00 +5°C° 0 mm 16 mps 697 mmHg 66%
13:00 +5°C° 0 mm 15 mps 697 mmHg 67%
14:00 +5°C° 0 mm 14 mps 697 mmHg 68%
15:00 +5°C° 0 mm 13 mps 696 mmHg 69%
16:00 +4°C° 0 mm 11 mps 696 mmHg 72%
17:00 +5°C° 0 mm 10 mps 695 mmHg 76%
18:00 +5°C° 0 mm 9 mps 695 mmHg 79%
19:00 +5°C° 0.1 mm 10 mps 695 mmHg 78%
20:00 +5°C° 0.1 mm 12 mps 694 mmHg 77%
21:00 +5°C° 0.1 mm 13 mps 694 mmHg 76%
22:00 +7°C° 0.7 mm 12 mps 693 mmHg 78%
23:00 +7°C° 0.7 mm 11 mps 692 mmHg 80%

24 January, Sunday

Time Temperature Precipitation Wind Pressure Humidity
00:00 +7°C° 0.7 mm 10 mps 692 mmHg 81%
01:00 +7°C° 0.4 mm 11 mps 691 mmHg 78%
02:00 +7°C° 0.4 mm 12 mps 691 mmHg 74%
03:00 +5°C° 0.4 mm 14 mps 690 mmHg 70%
04:00 +4°C° 0.3 mm 13 mps 691 mmHg 76%
05:00 +3°C° 0.3 mm 13 mps 691 mmHg 82%
06:00 0°C° 0.3 mm 12 mps 692 mmHg 88%
07:00 0°C° 0.1 mm 12 mps 693 mmHg 83%
08:00 +1°C° 0.1 mm 11 mps 694 mmHg 78%
09:00 +1°C° 0.1 mm 10 mps 695 mmHg 73%
10:00 +2°C° 0 mm 11 mps 696 mmHg 68%
11:00 +3°C° 0 mm 11 mps 696 mmHg 62%
12:00 +4°C° 0 mm 12 mps 697 mmHg 57%
13:00 +4°C° 0 mm 12 mps 697 mmHg 56%
14:00 +5°C° 0 mm 12 mps 697 mmHg 55%
15:00 +5°C° 0 mm 12 mps 697 mmHg 54%
16:00 +4°C° 0 mm 11 mps 697 mmHg 58%
17:00 +3°C° 0 mm 11 mps 698 mmHg 62%
18:00 +2°C° 0 mm 10 mps 698 mmHg 66%
19:00 +2°C° 0 mm 10 mps 699 mmHg 69%
20:00 +2°C° 0 mm 10 mps 699 mmHg 71%
21:00 +1°C° 0 mm 10 mps 699 mmHg 74%
22:00 +1°C° 0 mm 9 mps 700 mmHg 76%
23:00 +1°C° 0 mm 8 mps 700 mmHg 79%

25 January, Monday

Time Temperature Precipitation Wind Pressure Humidity
00:00 0°C° 0 mm 8 mps 700 mmHg 82%
01:00 0°C° 0 mm 7 mps 700 mmHg 83%
02:00 0°C° 0 mm 7 mps 700 mmHg 85%
03:00 -1°C° 0 mm 7 mps 700 mmHg 87%
04:00 -1°C° 0 mm 6 mps 701 mmHg 87%
05:00 -1°C° 0 mm 6 mps 701 mmHg 88%
06:00 -1°C° 0 mm 6 mps 702 mmHg 89%
07:00 +1°C° 0 mm 6 mps 702 mmHg 85%
08:00 +1°C° 0 mm 6 mps 703 mmHg 82%
09:00 +2°C° 0 mm 6 mps 704 mmHg 78%
10:00 +3°C° 0 mm 6 mps 704 mmHg 73%
11:00 +3°C° 0 mm 6 mps 704 mmHg 68%
12:00 +4°C° 0 mm 7 mps 705 mmHg 63%
13:00 +5°C° 0 mm 6 mps 705 mmHg 61%
14:00 +5°C° 0 mm 6 mps 704 mmHg 60%
15:00 +5°C° 0 mm 6 mps 704 mmHg 58%
16:00 +5°C° 0 mm 5 mps 705 mmHg 63%
17:00 +5°C° 0 mm 4 mps 705 mmHg 68%
18:00 +4°C° 0 mm 3 mps 705 mmHg 73%
19:00 +4°C° 0 mm 3 mps 705 mmHg 73%
20:00 +5°C° 0 mm 2 mps 705 mmHg 73%
21:00 +5°C° 0 mm 2 mps 706 mmHg 73%
22:00 +4°C° 0 mm 2 mps 706 mmHg 74%
23:00 +4°C° 0 mm 2 mps 706 mmHg 75%
Show more